When you browse on this site, cookies collect data to enhance your experience and personalize the content and advertising you see.
Visit our Privacy Policy to learn more. By continuing to use the site, you agree to this use of cookies and data.

Stündliche Wetter Novokindelka

Heute, 4 August, Dienstag

Zeit Temperatur Niederschläge Wind Luftdruck Luftfeuchtigkeit
00:00 +15°C° 1.2 mm 8 m/S 745 mmHg 86%
01:00 +15°C° 1.2 mm 9 m/S 745 mmHg 87%
02:00 +13°C° 1.1 mm 10 m/S 744 mmHg 86%
03:00 +13°C° 1.1 mm 11 m/S 744 mmHg 85%
04:00 +14°C° 0 mm 11 m/S 744 mmHg 87%
05:00 +14°C° 0.1 mm 10 m/S 744 mmHg 87%
06:00 +16°C° 0.1 mm 9 m/S 743 mmHg 87%
07:00 +17°C° 0.1 mm 8 m/S 743 mmHg 87%
08:00 +18°C° 0.1 mm 8 m/S 743 mmHg 84%
09:00 +20°C° 0.1 mm 8 m/S 743 mmHg 82%
10:00 +22°C° 0 mm 7 m/S 744 mmHg 80%
11:00 +23°C° 0 mm 6 m/S 744 mmHg 76%
12:00 +25°C° 0 mm 5 m/S 743 mmHg 72%
13:00 +26°C° 0 mm 4 m/S 743 mmHg 68%
14:00 +26°C° 0.5 mm 4 m/S 744 mmHg 70%
15:00 +25°C° 0.5 mm 3 m/S 744 mmHg 73%
16:00 +25°C° 0.5 mm 3 m/S 744 mmHg 75%
17:00 +25°C° 0.8 mm 5 m/S 744 mmHg 75%
18:00 +24°C° 0.8 mm 6 m/S 744 mmHg 76%
19:00 +24°C° 0.8 mm 7 m/S 745 mmHg 77%
20:00 +23°C° 0.1 mm 6 m/S 745 mmHg 79%
21:00 +22°C° 0.1 mm 6 m/S 745 mmHg 81%
22:00 +21°C° 0.1 mm 5 m/S 746 mmHg 83%
23:00 +21°C° 0.2 mm 5 m/S 746 mmHg 82%

Morgen, 5 August, Mittwoch

Zeit Temperatur Niederschläge Wind Luftdruck Luftfeuchtigkeit
00:00 +21°C° 0.2 mm 5 m/S 746 mmHg 81%
01:00 +21°C° 0.2 mm 5 m/S 745 mmHg 80%
02:00 +20°C° 0.1 mm 5 m/S 746 mmHg 82%
03:00 +20°C° 0.1 mm 5 m/S 746 mmHg 84%
04:00 +20°C° 0.1 mm 5 m/S 746 mmHg 86%
05:00 +21°C° 0 mm 5 m/S 746 mmHg 83%
06:00 +21°C° 0 mm 5 m/S 746 mmHg 79%
07:00 +22°C° 0 mm 5 m/S 746 mmHg 75%
08:00 +24°C° 0 mm 6 m/S 747 mmHg 67%
09:00 +27°C° 0 mm 6 m/S 747 mmHg 59%
10:00 +29°C° 0 mm 7 m/S 747 mmHg 50%
11:00 +30°C° 0 mm 7 m/S 747 mmHg 47%
12:00 +32°C° 0 mm 6 m/S 747 mmHg 43%
13:00 +34°C° 0 mm 6 m/S 747 mmHg 39%
14:00 +34°C° 0 mm 6 m/S 747 mmHg 40%
15:00 +33°C° 0 mm 6 m/S 747 mmHg 40%
16:00 +33°C° 0 mm 6 m/S 747 mmHg 40%
17:00 +32°C° 0 mm 6 m/S 747 mmHg 45%
18:00 +30°C° 0 mm 5 m/S 747 mmHg 50%
19:00 +29°C° 0 mm 5 m/S 747 mmHg 54%
20:00 +28°C° 0 mm 5 m/S 748 mmHg 57%
21:00 +27°C° 0 mm 5 m/S 748 mmHg 59%
22:00 +26°C° 0 mm 5 m/S 748 mmHg 62%
23:00 +25°C° 0 mm 5 m/S 748 mmHg 63%

übermorgen, 6 August, Donnerstag

Zeit Temperatur Niederschläge Wind Luftdruck Luftfeuchtigkeit
00:00 +25°C° 0 mm 5 m/S 748 mmHg 65%
01:00 +23°C° 0 mm 5 m/S 748 mmHg 67%
02:00 +23°C° 0 mm 5 m/S 748 mmHg 68%
03:00 +22°C° 0 mm 5 m/S 748 mmHg 69%
04:00 +22°C° 0 mm 5 m/S 748 mmHg 71%
05:00 +22°C° 0 mm 5 m/S 748 mmHg 71%
06:00 +22°C° 0 mm 5 m/S 749 mmHg 71%
07:00 +23°C° 0 mm 5 m/S 749 mmHg 71%
08:00 +24°C° 0 mm 6 m/S 749 mmHg 65%
09:00 +27°C° 0 mm 6 m/S 749 mmHg 60%
10:00 +29°C° 0 mm 6 m/S 749 mmHg 55%
11:00 +30°C° 0 mm 6 m/S 749 mmHg 50%
12:00 +32°C° 0 mm 6 m/S 749 mmHg 45%
13:00 +33°C° 0 mm 5 m/S 749 mmHg 41%
14:00 +33°C° 0 mm 6 m/S 748 mmHg 40%
15:00 +33°C° 0 mm 6 m/S 748 mmHg 40%
16:00 +33°C° 0 mm 6 m/S 748 mmHg 40%
17:00 +32°C° 0 mm 5 m/S 748 mmHg 43%
18:00 +30°C° 0 mm 5 m/S 748 mmHg 47%
19:00 +29°C° 0 mm 5 m/S 748 mmHg 51%
20:00 +28°C° 0 mm 5 m/S 748 mmHg 54%
21:00 +27°C° 0 mm 4 m/S 748 mmHg 57%
22:00 +25°C° 0 mm 4 m/S 748 mmHg 60%
23:00 +25°C° 0 mm 4 m/S 748 mmHg 62%

7 August, Freitag

Zeit Temperatur Niederschläge Wind Luftdruck Luftfeuchtigkeit
00:00 +23°C° 0 mm 5 m/S 747 mmHg 63%
01:00 +23°C° 0 mm 5 m/S 747 mmHg 65%
02:00 +22°C° 0 mm 5 m/S 747 mmHg 67%
03:00 +22°C° 0 mm 5 m/S 747 mmHg 69%
04:00 +21°C° 0 mm 5 m/S 746 mmHg 71%
05:00 +21°C° 0 mm 5 m/S 746 mmHg 70%
06:00 +22°C° 0 mm 5 m/S 746 mmHg 68%
07:00 +22°C° 0 mm 5 m/S 746 mmHg 66%
08:00 +25°C° 0 mm 5 m/S 746 mmHg 62%
09:00 +26°C° 0 mm 5 m/S 746 mmHg 57%
10:00 +28°C° 0 mm 5 m/S 746 mmHg 53%
11:00 +29°C° 0 mm 5 m/S 746 mmHg 49%
12:00 +30°C° 0 mm 5 m/S 746 mmHg 46%
13:00 +32°C° 0 mm 5 m/S 746 mmHg 43%
14:00 +32°C° 0 mm 4 m/S 746 mmHg 42%
15:00 +33°C° 0 mm 4 m/S 746 mmHg 42%
16:00 +33°C° 0 mm 4 m/S 745 mmHg 41%
17:00 +31°C° 0 mm 3 m/S 745 mmHg 45%
18:00 +30°C° 0 mm 3 m/S 745 mmHg 49%
19:00 +29°C° 0 mm 3 m/S 745 mmHg 53%
20:00 +27°C° 0.4 mm 3 m/S 745 mmHg 58%
21:00 +26°C° 0.4 mm 3 m/S 745 mmHg 63%
22:00 +24°C° 0.4 mm 3 m/S 745 mmHg 68%
23:00 +24°C° 0.2 mm 3 m/S 745 mmHg 72%

8 August, Samstag

Zeit Temperatur Niederschläge Wind Luftdruck Luftfeuchtigkeit
00:00 +22°C° 0.2 mm 3 m/S 745 mmHg 76%
01:00 +22°C° 0.2 mm 3 m/S 744 mmHg 80%
02:00 +21°C° 0 mm 3 m/S 744 mmHg 81%
03:00 +21°C° 0 mm 3 m/S 744 mmHg 83%
04:00 +20°C° 0 mm 3 m/S 744 mmHg 84%
05:00 +21°C° 0 mm 4 m/S 743 mmHg 82%
06:00 +21°C° 0 mm 4 m/S 743 mmHg 79%
07:00 +22°C° 0 mm 5 m/S 743 mmHg 76%
08:00 +23°C° 0 mm 5 m/S 743 mmHg 71%
09:00 +26°C° 0 mm 6 m/S 743 mmHg 66%
10:00 +27°C° 0 mm 6 m/S 743 mmHg 60%
11:00 +28°C° 0 mm 6 m/S 743 mmHg 58%
12:00 +29°C° 0 mm 6 m/S 743 mmHg 56%
13:00 +30°C° 0 mm 6 m/S 743 mmHg 54%
14:00 +29°C° 0.1 mm 7 m/S 743 mmHg 56%
15:00 +29°C° 0.1 mm 7 m/S 742 mmHg 59%
16:00 +28°C° 0.1 mm 8 m/S 742 mmHg 61%
17:00 +26°C° 0.3 mm 8 m/S 742 mmHg 66%
18:00 +23°C° 0.3 mm 8 m/S 742 mmHg 70%
19:00 +22°C° 0.3 mm 8 m/S 742 mmHg 75%
20:00 +21°C° 0 mm 8 m/S 742 mmHg 76%
21:00 +20°C° 0 mm 7 m/S 743 mmHg 77%
22:00 +19°C° 0 mm 6 m/S 743 mmHg 78%
23:00 +19°C° 0 mm 6 m/S 742 mmHg 78%

9 August, Sonntag

Zeit Temperatur Niederschläge Wind Luftdruck Luftfeuchtigkeit
00:00 +19°C° 0 mm 6 m/S 742 mmHg 78%
01:00 +19°C° 0 mm 6 m/S 742 mmHg 78%
02:00 +17°C° 0 mm 5 m/S 742 mmHg 80%
03:00 +17°C° 0 mm 5 m/S 742 mmHg 82%
04:00 +17°C° 0 mm 5 m/S 742 mmHg 83%
05:00 +17°C° 0 mm 5 m/S 742 mmHg 82%
06:00 +17°C° 0 mm 5 m/S 742 mmHg 80%
07:00 +17°C° 0 mm 6 m/S 742 mmHg 78%
08:00 +17°C° 0 mm 5 m/S 742 mmHg 74%
09:00 +19°C° 0 mm 5 m/S 742 mmHg 70%
10:00 +20°C° 0 mm 5 m/S 742 mmHg 67%
11:00 +20°C° 0 mm 5 m/S 742 mmHg 65%
12:00 +21°C° 0 mm 5 m/S 743 mmHg 63%
13:00 +21°C° 0 mm 5 m/S 743 mmHg 61%
14:00 +21°C° 0 mm 5 m/S 743 mmHg 59%
15:00 +22°C° 0 mm 5 m/S 743 mmHg 57%
16:00 +22°C° 0 mm 5 m/S 743 mmHg 55%
17:00 +21°C° 0 mm 5 m/S 743 mmHg 56%
18:00 +21°C° 0 mm 4 m/S 743 mmHg 58%
19:00 +20°C° 0 mm 4 m/S 743 mmHg 59%
20:00 +19°C° 0 mm 4 m/S 744 mmHg 63%
21:00 +17°C° 0 mm 3 m/S 744 mmHg 68%
22:00 +16°C° 0 mm 3 m/S 744 mmHg 72%
23:00 +14°C° 0 mm 3 m/S 744 mmHg 74%
Mehr zeigen